FW1946 Weather Reports


Display with metric or nautical units.
time (UTC)temp
F
wind
direction
speed
MPH
gust
MPH
rain 1hr
in
rain 24hr
in
rain mn
in
humidity
%
barometer
mb
20260906124544 53 22 0.0 0.0 0.00 0.05 0.05 96 1015.8
20260906123043 53 22 0.0 0.0 0.00 0.05 0.05 96 1015.8
20260906121538 53 22 0.0 0.0 0.00 0.05 0.05 96 1015.8
20260906120042 53 22 0.0 0.0 0.00 0.05 0.05 96 1015.9
20260906113041 53 22 0.0 0.0 0.00 0.05 0.05 96 1016.1
20260906111542 53 22 0.0 0.0 0.02 0.05 0.05 96 1016.0
20260906110042 53 22 0.0 0.0 0.02 0.05 0.05 95 1016.1
20260906101545 53 135 0.0 1.0 0.03 0.03 0.03 95 1016.5
20260906093039 53 135 0.0 0.0 0.02 0.02 0.00 94 1016.4
20260906091541 53 135 0.0 0.0 0.00 0.00 0.00 94 1016.3
20260906090118 54 146 0.0 1.0 0.00 0.00 0.00 94 1016.3
20260906084539 54 202 0.0 1.0 0.00 0.00 0.00 94 1016.3
20260906083041 53 180 0.0 2.0 0.00 0.00 0.00 94 1016.3
20260906081619 53 162 0.0 2.0 0.00 0.00 0.00 94 1016.3
20260906080103 53 180 0.0 2.0 0.00 0.00 0.00 94 1016.1
20260906071620 53 180 0.0 0.0 0.00 0.00 0.00 93 1016.4
20260906070044 53 180 0.0 0.0 0.00 0.00 0.00 93 1016.4
20260906064542 53 180 0.0 1.0 0.00 0.00 0.00 92 1016.6
20260906063044 53 135 0.0 0.0 0.00 0.00 0.00 92 1016.7
20260906060042 54 135 0.0 0.0 0.00 0.00 0.00 90 1016.7
20260906053044 54 135 0.0 0.0 0.00 0.00 0.00 89 1016.7
20260906051543 55 171 0.0 2.0 0.00 0.00 0.00 88 1016.7
20260906043039 56 207 0.0 4.0 0.00 0.00 0.00 88 1016.7
20260906041540 56 198 0.0 3.0 0.00 0.00 0.00 88 1016.8
20260906040038 56 165 0.0 1.0 0.00 0.00 0.00 87 1016.7
20260906034540 58 202 0.0 2.0 0.00 0.00 0.00 84 1016.1
20260906030040 59 202 0.0 2.0 0.00 0.00 0.00 82 1016.0
20260906023039 61 202 0.0 1.0 0.00 0.00 0.00 76 1015.9
20260906021542 63 202 0.0 2.0 0.00 0.00 0.00 74 1015.9
20260906020041 65 202 0.0 1.0 0.00 0.00 0.00 71 1015.7
20260906014542 66 202 0.0 2.0 0.00 0.00 0.00 71 1015.8
20260906013039 66 196 0.0 2.0 0.00 0.00 0.00 70 1015.8
20260906010046 67 158 0.0 4.0 0.00 0.00 0.00 69 1016.0
20260906004544 67 188 2.0 6.0 0.00 0.00 0.00 73 1016.2
20260906003044 64 182 1.0 5.0 0.00 0.00 0.00 79 1016.4
20260906001542 63 177 0.0 3.0 0.00 0.00 0.00 77 1016.5
20260905233124 65 337 0.0 2.0 0.00 0.00 0.00 68 1016.1
20260905230041 67 337 0.0 5.0 0.00 0.00 0.00 59 1016.2
20260905224618 68 326 3.0 6.0 0.00 0.00 0.00 58 1016.0
20260905220037 69 75 0.0 2.0 0.00 0.00 0.00 62 1016.1
20260905213044 68 202 0.0 2.0 0.00 0.00 0.00 63 1016.4
20260905211541 68 186 0.0 3.0 0.00 0.00 0.00 60 1016.4
20260905210152 69 48 0.0 2.0 0.00 0.00 0.00 58 1016.6
20260905204543 68 34 0.0 2.0 0.00 0.00 0.00 57 1016.6
20260905203152 69 44 0.0 4.0 0.00 0.00 0.00 57 1016.6
20260905201543 69 334 1.0 6.0 0.00 0.00 0.00 56 1016.7
20260905194541 69 326 1.0 6.0 0.00 0.00 0.00 61 1017.2
20260905190042 67 324 1.0 5.0 0.00 0.00 0.00 68 1017.6
20260905183043 63 298 1.0 5.0 0.00 0.00 0.00 79 1018.1
20260905181543 60 189 0.0 4.0 0.00 0.00 0.00 87 1018.4
20260905180041 58 201 0.0 2.0 0.00 0.00 0.00 91 1018.5
20260905174618 57 206 0.0 1.0 0.00 0.00 0.00 92 1018.5
20260905173042 57 225 0.0 1.0 0.00 0.00 0.00 93 1018.5
20260905171539 56 225 0.0 1.0 0.00 0.00 0.00 94 1018.5
20260905170042 56 225 0.0 1.0 0.00 0.00 0.00 95 1018.5
20260905164541 56 160 0.0 2.0 0.00 0.00 0.00 96 1018.5
20260905163042 53 143 0.0 2.0 0.00 0.00 0.00 97 1018.4
20260905154540 53 181 0.0 2.0 0.00 0.00 0.00 97 1018.4
20260905153202 52 247 0.0 0.0 0.00 0.00 0.00 97 1018.5
20260905151540 52 247 0.0 0.0 0.00 0.00 0.00 97 1018.4
20260905150041 52 247 0.0 0.0 0.00 0.00 0.00 97 1018.4
20260905144546 51 247 0.0 0.0 0.00 0.00 0.00 97 1018.2
20260905134540 50 247 0.0 0.0 0.00 0.00 0.00 97 1017.8
20260905130044 52 276 0.0 1.0 0.00 0.00 0.00 97 1017.6